FW1289 Weather Reports


time (UTC)temp
C
wind
direction
speed
KPH
gust
KPH
rain 1hr
cm
rain 24hr
cm
rain mn
cm
humidity
%
barometer
mb
20260906113014 21 15 0.0 0.0 0.00 0.25 0.00 91 1012.4
20260906111513 21 13 0.0 0.0 0.00 0.25 0.00 91 1012.1
20260906110018 21 32 0.0 0.0 0.00 0.25 0.00 91 1012.2
20260906104517 21 32 0.0 0.0 0.00 0.25 0.00 91 1012.2
20260906103010 21 12 0.0 0.0 0.00 0.25 0.00 91 1012.2
20260906101510 21 38 0.0 0.0 0.00 0.25 0.00 91 1012.0
20260906100010 21 314 0.0 0.0 0.00 0.25 0.00 91 1012.0
20260906094524 22 16 0.0 0.0 0.00 0.25 0.00 91 1012.0
20260906093012 22 360 0.0 0.0 0.00 0.25 0.00 91 1012.0
20260906091508 22 42 0.0 0.0 0.00 0.25 0.00 92 1012.0
20260906090007 22 55 0.0 0.0 0.00 0.25 0.00 91 1011.8
20260906084506 21 53 0.0 0.0 0.00 0.25 0.00 91 1011.8
20260906083006 21 9 0.0 0.0 0.00 0.25 0.00 91 1011.8
20260906081515 21 40 0.0 0.0 0.00 0.25 0.00 91 1011.6
20260906080005 21 65 0.0 0.0 0.00 0.25 0.00 90 1011.7
20260906074503 21 36 0.0 0.0 0.00 0.25 0.00 90 1011.6
20260906073001 21 30 0.0 0.0 0.00 0.25 0.00 89 1011.6
20260906071600 21 13 0.0 0.0 0.00 0.25 0.00 89 1011.6
20260906070058 22 31 0.0 0.0 0.00 0.25 0.00 88 1011.6
20260906064554 22 25 0.0 0.0 0.00 0.25 0.00 88 1011.8
20260906063052 22 10 0.0 0.0 0.00 0.25 0.00 88 1011.8
20260906061551 22 41 0.0 0.0 0.00 0.25 0.00 87 1012.1
20260906060048 23 25 0.0 0.0 0.00 0.25 0.00 87 1011.9
20260906054545 23 5 0.0 0.0 0.00 0.25 0.00 86 1011.8
20260906053044 23 23 0.0 0.0 0.00 0.25 0.00 86 1011.9
20260906051540 24 13 0.0 0.0 0.00 0.25 0.00 85 1011.8
20260906050038 24 26 0.0 0.0 0.00 0.25 0.25 84 1011.8
20260906044542 25 63 0.0 0.0 0.00 0.25 0.25 83 1011.7
20260906043043 25 46 0.0 0.0 0.00 0.25 0.25 81 1011.5
20260906041538 25 52 0.0 0.0 0.00 0.25 0.25 81 1011.5
20260906040037 26 34 0.0 1.6 0.00 0.25 0.25 81 1011.1
20260906034541 26 270 0.0 0.0 0.00 0.25 0.25 81 1011.1
20260906033033 26 5 0.0 3.2 0.00 0.25 0.25 80 1011.1
20260906031545 27 9 0.0 0.0 0.00 0.25 0.25 80 1010.8
20260906030033 27 71 0.0 3.2 0.00 0.25 0.25 80 1010.8
20260906024531 27 70 0.0 0.0 0.00 0.25 0.25 81 1010.7
20260906023032 28 24 0.0 0.0 0.00 0.25 0.25 80 1010.5
20260906021531 28 13 0.0 0.0 0.00 0.25 0.25 79 1010.0
20260906020040 28 46 0.0 0.0 0.00 0.25 0.25 78 1009.7
20260906014534 28 72 0.0 0.0 0.00 0.25 0.25 78 1009.6
20260906013029 29 10 0.0 0.0 0.00 0.25 0.25 77 1009.6
20260906011529 29 343 0.0 0.0 0.00 0.25 0.25 76 1009.4
20260906010029 30 343 0.0 0.0 0.00 0.25 0.25 74 1009.3
20260906004528 30 343 0.0 0.0 0.00 0.25 0.25 72 1009.1
20260906003029 31 343 0.0 0.0 0.00 0.25 0.25 69 1009.0
20260906001532 31 343 0.0 0.0 0.00 0.25 0.25 67 1009.0
20260906000027 31 343 0.0 0.0 0.00 0.25 0.25 66 1009.0
20260905234526 32 346 0.0 0.0 0.00 0.25 0.25 64 1009.1
20260905233031 32 355 0.0 0.0 0.00 0.25 0.25 63 1009.1
20260905231526 33 22 0.0 0.0 0.00 0.25 0.25 61 1009.0
20260905230025 33 304 0.0 0.0 0.00 0.25 0.25 60 1008.8
20260905224524 33 304 0.0 0.0 0.00 0.25 0.25 58 1008.7
20260905223034 34 13 0.0 1.6 0.00 0.25 0.25 57 1008.7
20260905221537 35 315 0.0 0.0 0.00 0.25 0.25 55 1008.6
20260905220026 35 271 0.0 0.0 0.00 0.25 0.25 53 1008.6
20260905214521 35 271 0.0 0.0 0.00 0.25 0.25 53 1008.7
20260905213021 34 271 0.0 0.0 0.00 0.25 0.25 56 1008.8
20260905211536 33 271 0.0 0.0 0.00 0.25 0.25 56 1008.8
20260905210018 33 229 0.0 0.0 0.00 0.25 0.25 58 1009.0
20260905204517 32 227 0.0 0.0 0.00 0.25 0.25 59 1009.2
20260905203014 31 229 0.0 0.0 0.00 0.25 0.25 67 1009.4
20260905201512 30 221 0.0 0.0 0.00 0.25 0.25 68 1009.5
20260905200014 29 203 0.0 0.0 0.00 0.25 0.25 71 1009.8
20260905194509 27 64 0.0 0.0 0.25 0.25 0.25 75 1009.9
20260905193008 26 49 0.0 0.0 0.25 0.25 0.25 79 1010.1
20260905191508 26 118 0.0 0.0 0.25 0.25 0.25 79 1010.3
20260905190007 28 113 0.0 1.6 0.25 0.25 0.25 70 1010.8
20260905184506 33 277 0.0 8.0 0.00 0.00 0.00 56 1010.2
20260905183006 35 271 0.0 0.0 0.00 0.00 0.00 50 1010.1
20260905181504 36 227 0.0 0.0 0.00 0.00 0.00 50 1010.1
20260905180001 35 215 0.0 0.0 0.00 0.00 0.00 50 1010.2
20260905174604 35 281 0.0 0.0 0.00 0.00 0.00 51 1010.3
20260905173057 35 288 0.0 0.0 0.00 0.00 0.00 52 1010.6
20260905171605 35 220 0.0 0.0 0.00 0.00 0.00 52 1010.6
20260905170058 35 350 0.0 0.0 0.00 0.00 0.00 52 1010.7
20260905164552 34 163 0.0 0.0 0.00 0.00 0.00 52 1011.0
20260905163049 34 333 0.0 0.0 0.00 0.00 0.00 53 1011.1
20260905161548 34 269 0.0 0.0 0.00 0.00 0.00 53 1011.0
20260905160051 33 334 0.0 0.0 0.00 0.00 0.00 56 1011.0
20260905154552 33 300 0.0 0.0 0.00 0.00 0.00 58 1011.0
20260905153042 33 290 0.0 0.0 0.00 0.00 0.00 56 1011.0
20260905151541 33 260 0.0 0.0 0.00 0.00 0.00 60 1010.9
20260905150037 32 261 0.0 0.0 0.00 0.00 0.00 65 1011.1
20260905144546 31 258 0.0 0.0 0.00 0.00 0.00 67 1011.1
20260905143030 31 277 0.0 0.0 0.00 0.00 0.00 68 1011.1
20260905141526 30 277 0.0 0.0 0.00 0.00 0.00 71 1011.1
20260905140027 29 223 0.0 0.0 0.00 0.00 0.00 71 1011.1
20260905134517 28 236 0.0 0.0 0.00 0.00 0.00 77 1011.3
20260905133013 27 223 0.0 0.0 0.00 0.00 0.00 80 1011.4
20260905131510 26 223 0.0 0.0 0.00 0.00 0.00 81 1011.4
20260905130006 25 223 0.0 0.0 0.00 0.00 0.00 85 1011.6
20260905124506 24 223 0.0 0.0 0.00 0.00 0.00 87 1011.3
20260905123003 24 223 0.0 0.0 0.00 0.00 0.00 87 1011.3
20260905121504 23 223 0.0 0.0 0.00 0.00 0.00 87 1011.2
20260905120101 23 223 0.0 0.0 0.00 0.00 0.00 86 1011.1
20260905114610 23 223 0.0 0.0 0.00 0.00 0.00 85 1011.1